PAL538 WADD-RPLL

Flight info

Callsign PAL538
Flight time N/A
Altitude 36000
Route DOBMA M522 ELANG/N0454F350 M522 NUGRO/N0455F370 M522 VJN M646 BUCAL BUCAL3R/06
Aircraft A321/M-SDE3FGHIRWY/LB1

Departure

Time N/A
Airport Denpasar I Gusti Ngurah Rai International Airport (WADD)

Arrival

Time 2026-05-06 12:01
Airport Ninoy Aquino International Airport (RPLL)
Time Latitude Longitude Altitude Speed Heading
2026-05-06 11:56 14.41811 120.85610 3034 ft 202 kts 60°
2026-05-06 11:57 14.42698 120.87244 2741 ft 192 kts 60°
2026-05-06 11:57 14.43128 120.88026 2544 ft 183 kts 60°
2026-05-06 11:57 14.43931 120.89475 2210 ft 166 kts 60°
2026-05-06 11:57 14.44479 120.90461 2016 ft 151 kts 60°
2026-05-06 11:58 14.44824 120.91081 1880 ft 145 kts 60°
2026-05-06 11:58 14.45492 120.92285 1643 ft 143 kts 60°
2026-05-06 11:58 14.45990 120.93180 1471 ft 143 kts 61°
2026-05-06 11:59 14.46950 120.94908 1134 ft 142 kts 60°
2026-05-06 11:59 14.47443 120.95797 954 ft 142 kts 62°
2026-05-06 11:59 14.47932 120.96686 753 ft 142 kts 62°
2026-05-06 11:59 14.48433 120.97566 577 ft 142 kts 63°
2026-05-06 12:00 14.48931 120.98460 413 ft 143 kts 63°
2026-05-06 12:00 14.49421 120.99345 214 ft 141 kts 64°
2026-05-06 12:00 14.49912 121.00234 48 ft 145 kts 64°
2026-05-06 12:00 14.50345 121.01031 36 ft 83 kts 62°
2026-05-06 12:01 14.50531 121.01357 44 ft 45 kts 60°
2026-05-06 12:01 14.50676 121.01613 49 ft 33 kts 53°
2026-05-06 12:01 14.50809 121.01753 51 ft 18 kts 37°
2026-05-06 12:01 14.50883 121.01780 52 ft 9 kts 338°
2026-05-06 12:02 14.50907 121.01744 53 ft 4 kts 257°
2026-05-06 12:02 14.50893 121.01719 54 ft 3 kts 239°
2026-05-06 12:02 14.50885 121.01705 54 ft 3 kts 239°
2026-05-06 12:02 14.50875 121.01688 55 ft 2 kts 239°
2026-05-06 12:03 14.50872 121.01683 55 ft 2 kts 239°
2026-05-06 12:03 14.50853 121.01650 56 ft 4 kts 240°
2026-05-06 12:03 14.50825 121.01601 56 ft 11 kts 239°
2026-05-06 12:03 14.50775 121.01511 56 ft 17 kts 240°
2026-05-06 12:04 14.50710 121.01394 52 ft 20 kts 240°
2026-05-06 12:04 14.50637 121.01260 44 ft 23 kts 240°
2026-05-06 12:04 14.50548 121.01101 37 ft 25 kts 240°
2026-05-06 12:04 14.50468 121.00956 37 ft 19 kts 240°
2026-05-06 12:05 14.50429 121.00882 37 ft 8 kts 257°
2026-05-06 12:05 14.50456 121.00838 38 ft 7 kts 341°
2026-05-06 12:05 14.50505 121.00826 39 ft 7 kts 339°
2026-05-06 12:05 14.50554 121.00800 39 ft 8 kts 331°
2026-05-06 12:06 14.50610 121.00765 38 ft 10 kts 320°
2026-05-06 12:06 14.50646 121.00712 39 ft 7 kts 296°
2026-05-06 12:06 14.50651 121.00690 39 ft 1 kts 250°
2026-05-06 12:06 14.50645 121.00681 40 ft 2 kts 224°
2026-05-06 12:07 14.50638 121.00675 40 ft 0 kts 216°
2026-05-06 12:07 14.50635 121.00674 40 ft 1 kts 213°
2026-05-06 12:07 14.50617 121.00663 41 ft 4 kts 208°
2026-05-06 12:07 14.50598 121.00653 42 ft 2 kts 207°
2026-05-06 12:08 14.50591 121.00649 42 ft 0 kts 207°